Flag for U.S.A. Weather past 2 weeks in Port Angeles, Washington, U.S.A.

Now
55 °F

Clear.


Feels Like: 53 °F
Forecast: 54 / 67 °F
Wind: 7 mph from Southwest

Location: William R. Fairchild International Airport

Current Time: Jul 26, 2014 at 6:11:10 AM

Latest Report: Jul 26, 2014 at 4:53 AM


Visibility: 10 mi

Pressure: 30.14 "Hg

Humidity: 83%

Dew point: 50 °F

Location of Port AngelesLocation

Historic Weather in Port Angeles — Graph

°F

Port Angeles temperature yesterday

Maximum temperature yesterday: 68 °F (at 3:53 PM)
Minimum temperature yesterday: 51 °F (at 5:53 AM)
Average temperature yesterday: 60 °F

Past Weeks' High & Low Weather Summary

 TemperatureHumidityPressure
High77 °F (Jul 11, 12:53 PM)100% (Jul 12, 9:53 PM)30.22 "Hg (Jul 12, 9:53 PM)
Low-1 °F (Jul 12, 9:53 PM)45% (Jul 11, 12:53 PM)29.93 "Hg (Jul 16, 8:53 PM)
Average59 °F77%30.05 "Hg
* Reported Jul 11 4:53 AM — Jul 26 4:53 AM, Port Angeles, Weather by CustomWeather, © 2014

Note: Actual official high and low records may vary slightly from our data, if they occured in-between our weather recording intervals... More about our weather records

Advertising

Port Angeles weather history for previous 24 hours

 ConditionsComfort  
Time TempWeatherWind HumidityBarometerVisibility
4:53 AM
Jul 26
55 °FClear.7 mph83%30.14 "Hg10 mi
3:53 AM54 °FClear.7 mph83%30.13 "Hg10 mi
2:53 AM52 °FClear.5 mph89%30.13 "Hg10 mi
1:53 AM56 °FClear.6 mph81%30.13 "Hg10 mi
12:53 AM57 °FClear.8 mph78%30.13 "Hg10 mi
11:53 PM
Jul 25
56 °FClear.7 mph81%30.12 "Hg10 mi
10:53 PM58 °FClear.8 mph70%30.13 "Hg10 mi
9:53 PM58 °FSunny.9 mph72%30.12 "Hg10 mi
8:53 PM60 °FSunny.8 mph69%30.11 "Hg10 mi
7:53 PM62 °FSunny.6 mph67%30.11 "Hg10 mi
6:53 PM64 °FSunny.10 mph63%30.12 "Hg10 mi
5:53 PM66 °FSunny.7 mph61%30.13 "Hg10 mi
4:53 PM66 °FSunny.13 mph61%30.14 "Hg10 mi
3:53 PM68 °FSunny.10 mph57%30.15 "Hg10 mi
2:53 PM67 °FPassing clouds.10 mph59%30.15 "Hg10 mi
1:53 PM65 °FOvercast.6 mph63%30.16 "Hg10 mi
12:53 PM64 °FOvercast.6 mph65%30.16 "Hg10 mi
11:53 AM62 °FOvercast.3 mph70%30.16 "Hg10 mi
10:53 AM61 °FPartly sunny.6 mph72%30.16 "Hg10 mi
9:53 AM61 °FSunny.6 mph72%30.16 "Hg10 mi
8:53 AM60 °FSunny.6 mph75%30.16 "Hg10 mi
7:53 AM60 °FSunny.3 mph72%30.16 "Hg10 mi
6:53 AM55 °FScattered clouds.No wind87%30.16 "Hg10 mi
Weather by CustomWeather, © 2014

See weather overviewHow to use our weather pages